TimeCDT,TemperatureF,Dew PointF,Humidity,Sea Level PressureIn,VisibilityMPH,Wind Direction,Wind SpeedMPH,Gust SpeedMPH,PrecipitationIn,Events,Conditions,WindDirDegrees,DateUTC
12:15 AM,82.6,73.9,75,29.98,10.0,SSW,5.8,-,N/A,,Scattered Clouds,210,2013-07-27 05:15:00
12:35 AM,82.6,74.1,75,29.97,10.0,SSW,8.1,-,N/A,,Clear,210,2013-07-27 05:35:00
12:55 AM,82.4,74.3,76,29.94,10.0,SSW,10.4,-,N/A,,Scattered Clouds,210,2013-07-27 05:55:00
1:15 AM,82.4,74.3,76,29.94,10.0,SSW,8.1,-,N/A,,Clear,210,2013-07-27 06:15:00
1:35 AM,82.4,73.8,75,29.94,10.0,SW,11.5,16.1,N/A,,Clear,220,2013-07-27 06:35:00
1:55 AM,82.4,73.6,75,29.94,10.0,SSW,9.2,-,N/A,,Clear,210,2013-07-27 06:55:00
2:15 AM,82.4,73.6,75,29.95,10.0,SSW,9.2,-,N/A,,Clear,210,2013-07-27 07:15:00
2:35 AM,82.4,73.8,75,29.94,10.0,SSW,10.4,-,N/A,,Scattered Clouds,210,2013-07-27 07:35:00
2:55 AM,82.4,73.9,75,29.94,10.0,SSW,9.2,-,N/A,,Clear,210,2013-07-27 07:55:00
3:15 AM,82.4,74.3,76,29.94,10.0,SW,11.5,-,N/A,,Clear,220,2013-07-27 08:15:00
3:35 AM,82.8,74.3,75,29.95,10.0,SW,10.4,16.1,N/A,,Clear,220,2013-07-27 08:35:00
3:55 AM,82.9,74.3,75,29.95,10.0,SW,6.9,-,N/A,,Clear,220,2013-07-27 08:55:00
4:15 AM,82.8,74.3,75,29.93,10.0,SW,9.2,-,N/A,,Clear,230,2013-07-27 09:15:00
4:35 AM,82.6,74.3,76,29.92,10.0,SSW,10.4,-,N/A,,Clear,200,2013-07-27 09:35:00
4:55 AM,82.8,74.5,76,29.92,10.0,SW,8.1,-,N/A,,Clear,220,2013-07-27 09:55:00
5:15 AM,83.3,74.5,75,29.93,10.0,SW,10.4,17.3,N/A,,Clear,220,2013-07-27 10:15:00
5:35 AM,83.3,74.5,75,29.93,10.0,SW,10.4,18.4,N/A,Rain,Light Rain,230,2013-07-27 10:35:00
5:55 AM,82.2,74.8,78,29.93,10.0,SW,12.7,19.6,N/A,Rain,Light Rain,230,2013-07-27 10:55:00
6:00 AM,82.4,75.2,79,29.93,10.0,SW,17.3,-,N/A,,Scattered Clouds,230,2013-07-27 11:00:00
6:15 AM,81.9,74.7,79,29.93,10.0,SW,11.5,-,N/A,,Scattered Clouds,230,2013-07-27 11:15:00
6:35 AM,81.7,74.7,79,29.93,10.0,SW,11.5,18.4,N/A,,Scattered Clouds,230,2013-07-27 11:35:00
6:50 AM,82.4,75.2,79,29.94,10.0,WSW,9.2,19.6,N/A,,Overcast,240,2013-07-27 11:50:00
6:55 AM,82.4,74.7,77,29.93,10.0,SW,13.8,-,N/A,,Scattered Clouds,230,2013-07-27 11:55:00
7:54 AM,82.4,73.4,74,29.92,10.0,West,13.8,19.6,N/A,,Mostly Cloudy,260,2013-07-27 12:54:00
9:50 AM,84.2,73.4,70,29.94,10.0,West,16.1,25.3,N/A,,Mostly Cloudy,260,2013-07-27 14:50:00
9:53 AM,84.2,73.4,70,29.93,10.0,WSW,13.8,20.7,N/A,,Scattered Clouds,250,2013-07-27 14:53:00
10:54 AM,87.8,69.8,55,29.93,10.0,WSW,15.0,-,N/A,,Mostly Cloudy,240,2013-07-27 15:54:00
11:50 AM,89.6,69.8,52,29.92,10.0,West,18.4,25.3,N/A,,Scattered Clouds,260,2013-07-27 16:50:00
1:53 PM,89.6,69.8,52,29.92,10.0,West,5.8,-,N/A,,Overcast,270,2013-07-27 18:53:00
2:50 PM,84.2,71.6,66,29.92,10.0,NW,10.4,-,N/A,,Mostly Cloudy,320,2013-07-27 19:50:00
3:50 PM,89.6,73.4,59,29.89,10.0,NW,13.8,19.6,N/A,,Scattered Clouds,310,2013-07-27 20:50:00
4:50 PM,89.6,75.2,62,29.88,10.0,NNW,9.2,-,N/A,,Scattered Clouds,340,2013-07-27 21:50:00
5:50 PM,87.8,73.4,62,29.89,10.0,NNW,6.9,-,N/A,,Scattered Clouds,330,2013-07-27 22:50:00
6:50 PM,87.8,71.6,58,29.90,10.0,NNW,5.8,-,N/A,,Scattered Clouds,340,2013-07-27 23:50:00
7:50 PM,84.2,71.6,66,29.90,10.0,North,5.8,-,N/A,,Mostly Cloudy,350,2013-07-28 00:50:00
8:50 PM,82.4,71.6,70,29.92,10.0,North,3.5,-,N/A,,Mostly Cloudy,10,2013-07-28 01:50:00
9:47 PM,80.6,73.4,79,29.92,10.0,Calm,Calm,-,N/A,,Overcast,0,2013-07-28 02:47:00
11:15 PM,78.8,71.6,78,29.94,10.0,NNE,4.6,-,N/A,,Clear,20,2013-07-28 04:15:00
11:35 PM,78.3,71.6,80,29.94,10.0,NE,3.5,-,N/A,,Scattered Clouds,40,2013-07-28 04:35:00
11:55 PM,78.3,71.6,80,29.94,10.0,NNE,3.5,-,N/A,,Mostly Cloudy,20,2013-07-28 04:55:00